• In France
  • List of Countries
  • For 7 days
  • Water Temperature
  • Satellite Maps
  • Weather Map
  • Weather Widgets
  • user-avatar
    Login

    Hourly Weather Bucaramanga

    Today, 14 December, Thursday

    Time Temperature Precipitation Wind Pressure Humidity
    00:00 +19°C° 0.1 mm 0 mps 673 mmHg 89%
    01:00 +19°C° 0 mm 0 mps 673 mmHg 90%
    02:00 +20°C° 0.1 mm 1 mps 672 mmHg 89%
    03:00 +20°C° 0.1 mm 1 mps 672 mmHg 88%
    04:00 +20°C° 0.1 mm 1 mps 672 mmHg 87%
    05:00 +20°C° 0.1 mm 1 mps 672 mmHg 83%
    06:00 +21°C° 0.1 mm 1 mps 673 mmHg 80%
    07:00 +21°C° 0 mm 1 mps 673 mmHg 74%
    08:00 +24°C° 0.1 mm 1 mps 674 mmHg 68%
    09:00 +26°C° 0.1 mm 1 mps 674 mmHg 62%
    10:00 +28°C° 0.1 mm 1 mps 674 mmHg 56%
    11:00 +29°C° 0 mm 1 mps 674 mmHg 53%
    12:00 +30°C° 0 mm 2 mps 673 mmHg 51%
    13:00 +30°C° 0 mm 2 mps 673 mmHg 49%
    14:00 +30°C° 0.1 mm 2 mps 672 mmHg 52%
    15:00 +29°C° 0.1 mm 1 mps 672 mmHg 55%
    16:00 +28°C° 0.1 mm 1 mps 671 mmHg 59%
    17:00 +26°C° 0.2 mm 1 mps 671 mmHg 66%
    18:00 +24°C° 0.2 mm 1 mps 671 mmHg 74%
    19:00 +22°C° 0.2 mm 1 mps 672 mmHg 81%
    20:00 +22°C° 0 mm 1 mps 672 mmHg 79%
    21:00 +22°C° 0 mm 1 mps 672 mmHg 76%
    22:00 +21°C° 0 mm 1 mps 673 mmHg 74%
    23:00 +21°C° 0 mm 1 mps 673 mmHg 73%

    Tomorrow, 15 December, Friday

    Time Temperature Precipitation Wind Pressure Humidity
    00:00 +21°C° 0 mm 1 mps 673 mmHg 73%
    01:00 +21°C° 0 mm 1 mps 672 mmHg 72%
    02:00 +20°C° 0 mm 1 mps 672 mmHg 73%
    03:00 +20°C° 0 mm 1 mps 672 mmHg 75%
    04:00 +20°C° 0 mm 1 mps 672 mmHg 76%
    05:00 +21°C° 0 mm 1 mps 672 mmHg 75%
    06:00 +21°C° 0 mm 1 mps 673 mmHg 74%
    07:00 +22°C° 0 mm 1 mps 673 mmHg 73%
    08:00 +24°C° 0 mm 1 mps 673 mmHg 67%
    09:00 +26°C° 0 mm 1 mps 674 mmHg 60%
    10:00 +29°C° 0 mm 1 mps 674 mmHg 54%
    11:00 +29°C° 0 mm 2 mps 674 mmHg 53%
    12:00 +30°C° 0 mm 2 mps 673 mmHg 52%
    13:00 +31°C° 0 mm 2 mps 673 mmHg 52%
    14:00 +30°C° 0.2 mm 2 mps 672 mmHg 55%
    15:00 +29°C° 0.2 mm 2 mps 671 mmHg 59%
    16:00 +28°C° 0.2 mm 1 mps 671 mmHg 63%
    17:00 +27°C° 0.3 mm 1 mps 671 mmHg 70%
    18:00 +25°C° 0.3 mm 1 mps 671 mmHg 76%
    19:00 +23°C° 0.3 mm 1 mps 671 mmHg 83%
    20:00 +23°C° 0.1 mm 1 mps 672 mmHg 81%
    21:00 +22°C° 0.1 mm 1 mps 672 mmHg 80%
    22:00 +22°C° 0.1 mm 1 mps 673 mmHg 79%
    23:00 +22°C° 0 mm 1 mps 673 mmHg 79%

    Day after tomorrow, 16 December, Saturday

    Time Temperature Precipitation Wind Pressure Humidity
    00:00 +22°C° 0 mm 1 mps 672 mmHg 78%
    01:00 +21°C° 0 mm 1 mps 672 mmHg 78%
    02:00 +21°C° 0 mm 1 mps 672 mmHg 77%
    03:00 +21°C° 0 mm 1 mps 672 mmHg 76%
    04:00 +21°C° 0 mm 1 mps 672 mmHg 75%
    05:00 +21°C° 0 mm 1 mps 672 mmHg 73%
    06:00 +21°C° 0 mm 1 mps 672 mmHg 70%
    07:00 +22°C° 0 mm 1 mps 673 mmHg 68%
    08:00 +24°C° 0 mm 1 mps 674 mmHg 62%
    09:00 +27°C° 0 mm 1 mps 674 mmHg 56%
    10:00 +29°C° 0 mm 1 mps 675 mmHg 50%
    11:00 +30°C° 0 mm 2 mps 674 mmHg 49%
    12:00 +30°C° 0 mm 2 mps 674 mmHg 48%
    13:00 +31°C° 0 mm 2 mps 673 mmHg 47%
    14:00 +30°C° 0.1 mm 2 mps 672 mmHg 50%
    15:00 +29°C° 0.1 mm 2 mps 672 mmHg 54%
    16:00 +28°C° 0.1 mm 1 mps 671 mmHg 58%
    17:00 +26°C° 0 mm 1 mps 671 mmHg 64%
    18:00 +24°C° 0 mm 1 mps 671 mmHg 69%
    19:00 +23°C° 0 mm 1 mps 671 mmHg 75%
    20:00 +22°C° 0 mm 1 mps 672 mmHg 69%
    21:00 +22°C° 0 mm 1 mps 672 mmHg 63%
    22:00 +21°C° 0 mm 1 mps 673 mmHg 56%
    23:00 +21°C° 0 mm 1 mps 672 mmHg 53%

    17 December, Sunday

    Time Temperature Precipitation Wind Pressure Humidity
    00:00 +21°C° 0 mm 1 mps 672 mmHg 49%
    01:00 +20°C° 0 mm 1 mps 672 mmHg 45%
    02:00 +20°C° 0 mm 1 mps 671 mmHg 44%
    03:00 +20°C° 0 mm 1 mps 671 mmHg 43%
    04:00 +20°C° 0 mm 1 mps 671 mmHg 43%
    05:00 +20°C° 0 mm 1 mps 672 mmHg 44%
    06:00 +20°C° 0 mm 1 mps 672 mmHg 46%
    07:00 +21°C° 0 mm 1 mps 673 mmHg 48%
    08:00 +23°C° 0 mm 1 mps 674 mmHg 46%
    09:00 +26°C° 0 mm 1 mps 674 mmHg 45%
    10:00 +29°C° 0 mm 1 mps 675 mmHg 43%
    11:00 +29°C° 0 mm 2 mps 674 mmHg 43%
    12:00 +30°C° 0 mm 2 mps 674 mmHg 42%
    13:00 +31°C° 0 mm 2 mps 673 mmHg 42%
    14:00 +30°C° 0 mm 2 mps 672 mmHg 45%
    15:00 +29°C° 0 mm 2 mps 672 mmHg 48%
    16:00 +29°C° 0 mm 1 mps 671 mmHg 51%
    17:00 +27°C° 0 mm 1 mps 671 mmHg 58%
    18:00 +25°C° 0 mm 1 mps 671 mmHg 64%
    19:00 +22°C° 0 mm 1 mps 671 mmHg 70%
    20:00 +22°C° 0 mm 1 mps 672 mmHg 65%
    21:00 +22°C° 0 mm 1 mps 672 mmHg 60%
    22:00 +21°C° 0 mm 1 mps 672 mmHg 55%
    23:00 +21°C° 0 mm 1 mps 672 mmHg 54%

    18 December, Monday

    Time Temperature Precipitation Wind Pressure Humidity
    00:00 +21°C° 0 mm 1 mps 672 mmHg 53%
    01:00 +20°C° 0 mm 1 mps 671 mmHg 52%
    02:00 +20°C° 0 mm 1 mps 671 mmHg 52%
    03:00 +20°C° 0 mm 1 mps 671 mmHg 52%
    04:00 +20°C° 0 mm 1 mps 671 mmHg 53%
    05:00 +20°C° 0 mm 1 mps 672 mmHg 53%
    06:00 +21°C° 0 mm 1 mps 672 mmHg 53%
    07:00 +21°C° 0 mm 1 mps 673 mmHg 53%
    08:00 +23°C° 0 mm 1 mps 674 mmHg 51%
    09:00 +26°C° 0 mm 1 mps 674 mmHg 49%
    10:00 +28°C° 0 mm 1 mps 675 mmHg 48%
    11:00 +29°C° 0 mm 2 mps 674 mmHg 47%
    12:00 +30°C° 0 mm 2 mps 673 mmHg 45%
    13:00 +31°C° 0 mm 2 mps 672 mmHg 44%
    14:00 +30°C° 0 mm 2 mps 672 mmHg 47%
    15:00 +30°C° 0 mm 2 mps 671 mmHg 49%
    16:00 +29°C° 0 mm 2 mps 671 mmHg 52%
    17:00 +27°C° 0.1 mm 1 mps 671 mmHg 58%
    18:00 +25°C° 0.1 mm 1 mps 671 mmHg 65%
    19:00 +22°C° 0.1 mm 1 mps 671 mmHg 71%
    20:00 +22°C° 0 mm 1 mps 672 mmHg 66%
    21:00 +22°C° 0 mm 1 mps 672 mmHg 60%
    22:00 +21°C° 0 mm 1 mps 673 mmHg 54%
    23:00 +21°C° 0 mm 1 mps 673 mmHg 54%

    19 December, Tuesday

    Time Temperature Precipitation Wind Pressure Humidity
    00:00 +21°C° 0 mm 1 mps 672 mmHg 53%
    01:00 +20°C° 0 mm 1 mps 672 mmHg 52%
    02:00 +20°C° 0 mm 1 mps 672 mmHg 54%
    03:00 +20°C° 0 mm 1 mps 671 mmHg 55%
    04:00 +20°C° 0 mm 1 mps 671 mmHg 57%
    05:00 +20°C° 0 mm 1 mps 672 mmHg 57%
    06:00 +21°C° 0 mm 1 mps 672 mmHg 58%
    07:00 +21°C° 0 mm 1 mps 673 mmHg 59%
    08:00 +24°C° 0 mm 1 mps 674 mmHg 55%
    09:00 +26°C° 0 mm 1 mps 674 mmHg 51%
    10:00 +29°C° 0 mm 1 mps 675 mmHg 47%
    11:00 +30°C° 0 mm 2 mps 674 mmHg 46%
    12:00 +30°C° 0 mm 2 mps 673 mmHg 45%
    13:00 +31°C° 0 mm 2 mps 673 mmHg 44%
    14:00 +30°C° 0 mm 2 mps 672 mmHg 48%
    15:00 +30°C° 0 mm 2 mps 671 mmHg 51%
    16:00 +29°C° 0 mm 2 mps 671 mmHg 54%
    17:00 +27°C° 0.1 mm 1 mps 671 mmHg 61%
    18:00 +25°C° 0.1 mm 1 mps 671 mmHg 68%
    19:00 +23°C° 0.1 mm 1 mps 671 mmHg 75%
    20:00 +22°C° 0 mm 1 mps 672 mmHg 71%
    21:00 +22°C° 0 mm 1 mps 672 mmHg 68%
    22:00 +22°C° 0 mm 1 mps 673 mmHg 64%
    23:00 +21°C° 0 mm 1 mps 672 mmHg 61%
    Show more